STARLINK-32532, 62156

Orbit data source: Space-Track

STARLINK-32532, 62156 is a payload satellite owned by SpaceX/Seattle (US) in LEO that was launched on Sat, 30 Nov 2024 UTC via an FALCON 9 launch vehicle from the Air Force Eastern Test Range (AFETR). Payload-class satellites include a variety of spacecraft equipped with specific instruments for various scientific and technological missions. These include communications satellites like Starlink; space stations such as the ISS; scientific satellites like the Hubble; Earth observation satellites from companies like Planet Labs, Umbra, and HawkEye 360; GPS; miniature CubeSats for education and research; and military/defense satellites.

Loading next visibility...
Identifier
62156, 2024-224T
Orbit
LEO
Country
Flag of USUS
Related business
Manufacturer
SpaceX/Seattle
Mission
Operational Commercial Communications
Bus & Motor
STARLINK V2M, Unknown motor
Mass
730 kg wet, ~700 kg dry
Launch date (UTC)
2024-11-30 (2 years ago)
Launch vehicle
FALCON 9
Launch site
Air Force Eastern Test Range (AFETR)
Object type
Payload
Rocket body
Debris
Shape & HBR
Box + 2 Pan, 17.7 m
Radar Cross Section
33.884 m², Large (>1 m²)

Expand to show TLE details & history
Last TLE update: 10 hours ago

TLE from 10 hours ago
0 STARLINK-32532
1 62156U 24224T   26171.42481856  .00026274  00000-0  96057-3 0  9990
2 62156  42.9993 297.7709 0001656 273.1035  86.9628 15.27591247 88039
Epoch: 2026-06-20T10:11Z
TLE epoch observation values (Epoch: 2026-06-20T10:11:44.323Z)
Latitude
0.00004°
Longitude
-123.80337°
Altitude
482.731 km
Speed
7.626 km/s
True Right ascension
19h 51m 05s
True Declination
0° 00' 00"
Sunlit
Object was in full shadow at epoch
Visualization orbit readout
Latitude
Unknown
Longitude
Unknown
Altitude
Unknown
Speed
Unknown
Apparent Right ascension
Unknown
Apparent Declination
Unknown
Sunlit
N/A
Visualization observer readout
Local Sidereal Time
07:24:03
Azimuth
Unknown
Elevation
Unknown
Doppler factor
Unknown
Orbital elements
Apogee altitude
486.097 km
Perigee altitude
483.824 km
Semi-major axis
6,863.098 km
Eccentricity
0.00017
Inclination
42.9993°
RAAN
297.7709°
Arg. of periapsis
273.1035°
True anomaly
86.98175°
Mean anomaly
86.9628°
Eccentric anomaly
86.97227°
Mean motion
3.81736 °/min
Orbital period
94.31 mins
BSTAR
0.00096057
Loading maneuver chart data...
Computing Atmospheric mass density...
Loading historical data...
Loading historical data...
Loading historical data...
Loading historical data...
Loading historical data...
Loading historical data...
Loading historical data...

Documentation

Showing up to 5 results
|